Weather History for LTCD - June, 2013

Change the Weather History Date:

Thursday, June 13, 2013

  Actual Average Record
Temperature  
Mean Temperature 68 °F -  
Max Temperature 88 °F 83 °F - ()
Min Temperature 49 °F 56 °F - ()
Cooling Degree Days 4    
Growing Degree Days 18 (Base 50)    
Moisture  
Dew Point 42 °F    
Average Humidity 39    
Maximum Humidity 82    
Minimum Humidity 10    
Precipitation  
Precipitation 0.00 in 0.03 in - ()
Sea Level Pressure  
Sea Level Pressure 29.82 in    
Wind  
Wind Speed 4 mph ()    
Max Wind Speed 13 mph    
Max Gust Speed 20 mph    
Visibility 7.8 miles    
Events      
T = Trace of Precipitation, MM = Missing Value Source: Averaged Metar Reports

Daily Weather History Graph

Daily Weather History Graph

Search for Another Location

Airport or City:

Trip Planner

Search our weather history database for the weather conditions in past years. The results will help you decide how hot, cold, wet, or windy it might be!

Date:

Astronomy

Jun. 13, 2013 Rise Set
Actual Time 4:53 AM EEST 7:50 PM EEST
Civil Twilight 4:20 AM EEST 8:23 PM EEST
Nautical Twilight 3:39 AM EEST 9:04 PM EEST
Astronomical Twilight 2:52 AM EEST 9:52 PM EEST
Moon 9:08 AM EEST (6/13) 10:47 PM EEST (6/13)
Length of Visible Light 16h 02m
Length of Day
14h 57m
Waxing Crescent, 19% of the Moon is Illuminated
Jun 13
Waxing Crescent
Jun 16
First Quarter
Jun 23
Full
Jun 30
Last Quarter
Jul 8
New

Hourly Weather History & Observations

Time (EEST) Temp. Dew Point Humidity Pressure Visibility Wind Dir Wind Speed Gust Speed Precip Events Conditions
12:50 AM 57.2 °F 44.6 °F 63% 29.83 in - NW 4.6 mph - N/A   Clear
1:50 AM 59.0 °F 42.8 °F 55% 29.83 in - Calm Calm - N/A   Clear
2:50 AM 53.6 °F 46.4 °F 77% 29.83 in - ESE 5.8 mph - N/A   Clear
3:00 AM 54 °F 46 °F 65%  in 12 mi ESE 5.8 mph - -  
3:50 AM 57.2 °F 44.6 °F 63% 29.86 in - East 3.5 mph - N/A   Clear
4:50 AM 51.8 °F 44.6 °F 76% 29.86 in - Calm Calm - N/A   Clear
5:50 AM 50.0 °F 44.6 °F 82% 29.86 in - Variable 1.2 mph - N/A   Clear
6:50 AM 60.8 °F 44.6 °F 55% 29.86 in - Calm Calm - N/A   Clear
7:50 AM 66.2 °F 46.4 °F 49% 29.86 in - Variable 1.2 mph - N/A   Clear
8:50 AM 69.8 °F 44.6 °F 40% 29.86 in - Variable 1.2 mph - N/A   Clear
9:00 AM 71 °F 45 °F 27%  in 12 mi SW 1.2 mph - -  
9:50 AM 73.4 °F 48.2 °F 41% 29.83 in - South 5.8 mph - N/A   Clear
10:50 AM 77.0 °F 44.6 °F 32% 29.83 in 6.2 mi South 5.8 mph - N/A   Partly Cloudy
11:50 AM 82.4 °F 48.2 °F 30% 29.83 in 6.2 mi Variable 1.2 mph - N/A   Partly Cloudy
12:50 PM 84.2 °F 42.8 °F 23% 29.80 in 6.2 mi SSE 5.8 mph - N/A   Partly Cloudy
1:50 PM 86.0 °F 39.2 °F 19% 29.77 in 6.2 mi SE 10.4 mph - N/A   Scattered Clouds
2:50 PM 86.0 °F 39.2 °F 19% 29.77 in 6.2 mi East 12.7 mph - N/A   Scattered Clouds
3:00 PM 86 °F 37 °F 10%  in 12 mi East 12.7 mph - -   Partly Cloudy
3:50 PM 86.0 °F 33.8 °F 15% 29.77 in 6.2 mi ESE 4.6 mph - N/A   Scattered Clouds
4:50 PM 86.0 °F 33.8 °F 15% 29.77 in 6.2 mi WNW 8.1 mph 19.6 mph N/A   Scattered Clouds
5:50 PM 86.0 °F 33.8 °F 15% 29.77 in - SW 6.9 mph - N/A   Clear
6:50 PM 82.4 °F 33.8 °F 17% 29.77 in - WSW 8.1 mph - N/A   Clear
7:50 PM 75.2 °F 35.6 °F 24% 29.80 in - SE 4.6 mph - N/A   Clear
8:50 PM 71.6 °F 39.2 °F 31% 29.80 in - ESE 6.9 mph - N/A   Clear
9:00 PM 72 °F 39 °F 19%  in 6 mi ESE 6.9 mph - -  
9:50 PM 64.4 °F 42.8 °F 45% 29.83 in - Variable 1.2 mph - N/A   Clear
10:50 PM 64.4 °F 41.0 °F 42% 29.83 in - North 3.5 mph - N/A   Clear
11:50 PM 59.0 °F 42.8 °F 55% 29.80 in - Calm Calm - N/A   Clear